User: anonymous
Location: Caltech
(34.1382°N, 118.1253°W)
Time: 18:42:03
(UTC-07:00)
Language:

Iridium 14 - Orbit

View from above orbital plane
View from above orbital plane
View from above satellite
View from above satellite

Ground track
Ground track

The orbit data is extracted from the following two-line orbital elements,

1 25777U 99032A   14212.39787564  .00000406  00000-0  89514-4 0   172
2 25777 086.5164 303.5752 0002457 108.3566 305.2481 14.54940146803857
Epoch (UTC): 31 July 2014 09:32:56
Eccentricity: 0.0002457
inclination: 86.5164°
perigee height: 708 km
apogee height: 711 km
right ascension of ascending node: 303.5752°
argument of perigee: 108.3566°
revolutions per day: 14.54940146
mean anomaly at epoch: 305.2481°
orbit number at epoch: 80385

The dashed part of the orbit path shows where the satellite is in the earth's shadow,  

DLR